OK2ARM-6 Weather Reports


time (UTC)temp
F
wind
direction
speed
knots
gust
knots
rain 1hr
in
rain 24hr
in
rain mn
in
humidity
%
barometer
mb
20260905195041 62 0.0 0.0 0.00 0.00 0.00 100 1022.7
20260905194041 62 0.0 0.0 0.00 0.00 0.00 100 1022.5
20260905193041 63 0.0 0.0 0.00 0.00 0.00 100 1022.4
20260905192041 64 0.0 0.0 0.00 0.00 0.00 100 1022.4
20260905185817 65 0.0 0.0 0.00 0.00 0.00 100 1022.3
20260905184817 65 0.0 0.0 0.00 0.00 0.00 100 1022.1
20260905183817 66 0.0 0.0 0.00 0.00 0.00 100 1021.8
20260905182817 66 0.0 0.0 0.00 0.00 0.00 100 1021.7
20260905181817 66 0.0 0.0 0.00 0.00 0.00 100 1021.4
20260905174330 67 0.0 0.0 0.00 0.00 0.00 100 1020.9
20260905173330 67 0.0 0.0 0.00 0.00 0.00 100 1020.8
20260905171106 68 0.0 0.0 0.00 0.00 0.00 100 1020.6
20260905170107 69 0.0 0.0 0.00 0.00 0.00 100 1020.5
20260905163843 69 0.0 0.0 0.00 0.00 0.00 100 1020.3
20260905162843 71 0.0 0.0 0.00 0.00 0.00 100 1020.3
20260905161843 71 0.0 0.0 0.00 0.00 0.00 100 1020.3
20260905160843 71 0.0 0.0 0.00 0.00 0.00 100 1020.0
20260905155843 73 0.0 0.0 0.00 0.00 0.00 100 1020.0
20260905153619 72 0.0 0.0 0.00 0.00 0.00 100 1019.9
20260905152620 70 0.0 0.0 0.00 0.00 0.00 100 1020.1
20260905151619 73 0.0 0.0 0.00 0.00 0.00 100 1020.0
20260905150619 73 0.0 0.0 0.00 0.00 0.00 100 1020.0
20260905145619 74 0.0 0.0 0.00 0.00 0.00 100 1019.9
20260905144619 74 0.0 0.0 0.00 0.00 0.00 100 1020.0
20260905143619 75 0.0 0.0 0.00 0.00 0.00 100 1019.9
20260905142619 73 0.0 0.0 0.00 0.00 0.00 100 1020.1
20260905141619 73 0.0 0.0 0.00 0.00 0.00 100 1020.1
20260905140619 72 0.0 0.0 0.00 0.00 0.00 100 1020.2
20260905135619 71 0.0 0.0 0.00 0.00 0.00 100 1020.4
20260905133355 72 0.0 0.0 0.00 0.00 0.00 100 1020.4
20260905131132 72 0.0 0.0 0.00 0.00 0.00 100 1020.4
20260905130132 71 0.0 0.0 0.00 0.00 0.00 100 1020.4
20260905125132 72 0.0 0.0 0.00 0.00 0.00 100 1020.5
20260905124132 73 0.0 0.0 0.00 0.00 0.00 100 1020.4
20260905123131 74 0.0 0.0 0.00 0.00 0.00 100 1020.4
20260905120908 73 0.0 0.0 0.00 0.00 0.00 100 1020.5
20260905114648 71 0.0 0.0 0.00 0.00 0.00 100 1020.6
20260905113645 69 0.0 0.0 0.00 0.00 0.00 100 1020.7
20260905112645 70 0.0 0.0 0.00 0.00 0.00 100 1020.7
20260905111644 70 0.0 0.0 0.00 0.00 0.00 100 1020.6
20260905105421 68 0.0 0.0 0.00 0.00 0.00 100 1020.5
20260905104421 68 0.0 0.0 0.00 0.00 0.00 100 1020.3
20260905102157 67 0.0 0.0 0.00 0.00 0.00 100 1020.6
20260905095934 68 0.0 0.0 0.00 0.00 0.00 100 1020.7
20260905093706 66 0.0 0.0 0.00 0.00 0.00 100 1020.8
20260905091443 65 0.0 0.0 0.00 0.00 0.00 100 1020.8
20260905090443 65 0.0 0.0 0.00 0.00 0.00 100 1020.8
20260905082955 61 0.0 0.0 0.00 0.00 0.00 17 1020.7
20260905081955 60 0.0 0.0 0.00 0.00 0.00 15 1020.9
20260905080955 60 0.0 0.0 0.00 0.00 0.00 17 1020.6
20260905075955 60 0.0 0.0 0.00 0.00 0.00 18 1020.4
20260905074955 59 0.0 0.0 0.00 0.00 0.00 21 1020.2
20260905073955 59 0.0 0.0 0.00 0.00 0.00 26 1020.1
20260905072955 58 0.0 0.0 0.00 0.00 0.00 30 1019.8
20260905071955 58 0.0 0.0 0.00 0.00 0.00 37 1019.6
20260905070955 58 0.0 0.0 0.00 0.00 0.00 36 1019.2
20260905065955 58 0.0 0.0 0.00 0.00 0.00 39 1019.5
20260905064955 57 0.0 0.0 0.00 0.00 0.00 44 1019.7
20260905063955 57 0.0 0.0 0.00 0.00 0.00 52 1019.6
20260905062955 57 0.0 0.0 0.00 0.00 0.00 65 1019.8
20260905061955 57 0.0 0.0 0.00 0.00 0.00 65 1019.6
20260905060955 56 0.0 0.0 0.00 0.00 0.00 54 1019.7
20260905055955 56 0.0 0.0 0.00 0.00 0.00 39 1019.4
20260905052506 57 0.0 0.0 0.00 0.00 0.00 19 1019.9
20260905050242 58 0.0 0.0 0.00 0.00 0.00 28 1019.1
20260905045242 58 0.0 0.0 0.00 0.00 0.00 32 1019.1
20260905044242 58 0.0 0.0 0.00 0.00 0.00 31 1019.0
20260905043242 58 0.0 0.0 0.00 0.00 0.00 34 1018.8
20260905042242 58 0.0 0.0 0.00 0.00 0.00 32 1018.9
20260905041241 58 0.0 0.0 0.00 0.00 0.00 24 1018.5
20260905040242 59 0.0 0.0 0.00 0.00 0.00 21 1018.2
20260905035241 59 0.0 0.0 0.00 0.00 0.00 16 1018.1
20260905034242 59 0.0 0.0 0.00 0.00 0.00 16 1018.1
20260905033242 60 0.0 0.0 0.00 0.00 0.00 13 1018.1
20260905032242 60 0.0 0.0 0.00 0.00 0.00 11 1017.5
20260905030018 61 0.0 0.0 0.00 0.00 0.00 8 1018.0
20260905025018 61 0.0 0.0 0.00 0.00 0.00 100 1017.8
20260905024018 63 0.0 0.0 0.00 0.00 0.00 100 1017.4
20260905023018 64 0.0 0.0 0.00 0.00 0.00 100 1016.9
20260905022018 64 0.0 0.0 0.00 0.00 0.00 100 1016.7
20260905021018 64 0.0 0.0 0.00 0.00 0.00 100 1016.9
20260905020018 64 0.0 0.0 0.00 0.00 0.00 100 1016.9
20260905015018 64 0.0 0.0 0.00 0.00 0.00 100 1016.4
20260905012753 65 0.0 0.0 0.00 0.00 0.00 100 1016.5
20260905011753 65 0.0 0.0 0.00 0.00 0.00 100 1016.6
20260905010753 66 0.0 0.0 0.00 0.00 0.00 100 1016.4
20260905005753 66 0.0 0.0 0.00 0.00 0.00 100 1016.5
20260905004754 66 0.0 0.0 0.00 0.00 0.00 100 1016.3
20260905003754 67 0.0 0.0 0.00 0.00 0.00 100 1016.2
20260905002754 68 0.0 0.0 0.00 0.00 0.00 100 1015.3
20260905001754 67 0.0 0.0 0.00 0.00 0.00 100 1014.7
20260905000754 62 0.0 0.0 0.00 0.00 0.00 100 1013.9
20260904235754 63 0.0 0.0 0.00 0.00 0.00 100 1013.6
20260904234753 62 0.0 0.0 0.00 0.00 0.00 100 1013.7
20260904233753 62 0.0 0.0 0.00 0.00 0.00 100 1013.6
20260904232753 63 0.0 0.0 0.00 0.00 0.00 100 1013.6
20260904231754 63 0.0 0.0 0.00 0.00 0.00 100 1013.6
20260904225530 63 0.0 0.0 0.00 0.00 0.00 100 1013.4
20260904224530 63 0.0 0.0 0.00 0.00 0.00 100 1013.4
20260904223529 63 0.0 0.0 0.00 0.00 0.00 100 1013.4
20260904222530 63 0.0 0.0 0.00 0.00 0.00 100 1013.5
20260904221530 63 0.0 0.0 0.00 0.00 0.00 100 1013.6
20260904220530 64 0.0 0.0 0.00 0.00 0.00 100 1013.4
20260904213043 64 0.0 0.0 0.00 0.00 0.00 100 1013.3
20260904210819 65 0.0 0.0 0.00 0.00 0.00 100 1013.5
20260904205819 66 0.0 0.0 0.00 0.00 0.00 100 1013.4
20260904201109 68 0.0 0.0 0.00 0.00 0.00 100 1013.5
20260904200109 68 0.0 0.0 0.00 0.00 0.00 100 1013.6